Location: �terpigny
(49.8910°N, 2.9249°E)
Time: 03:59:55
(UTC+00:00)

EO-88 - Pass Details

Date: 30 June 2022
Orbit: 454 x 462 km, 97.3° (Epoch: 07 August)

Event Time Altitude Azimuth Distance (km) Brightness Sun altitude
Exits shadow 22:26:46 - 226° (SW) 2,130 ? -14.6°
Reaches altitude 10° 22:29:04 10° 255° (WSW) 1,630 ? -14.7°
Maximum altitude 22:30:06 11° 272° (W) 1,570 ? -14.7°
Drops below altitude 10° 22:31:08 10° 289° (WNW) 1,634 ? -14.8°
Sets 22:34:38 0° 327° (NNW) 2,516 ? -15.0°
